Time,TemperatureF,DewpointF,PressureIn,WindDirection,WindDirectionDegrees,WindSpeedMPH,WindSpeedGustMPH,Humidity,HourlyPrecipIn,Conditions,Clouds,dailyrainin,SoftwareType,DateUTC
2013-02-18 00:00:00,24.3,0.6,29.64,SSE,162,5.8,10.5,35,0.00,,CLR,0.00,VWS V14.01,2013-02-18 06:00:00,
2013-02-18 00:05:00,24.4,0.7,29.64,SSE,148,5.4,8.1,35,0.00,,CLR,0.00,VWS V14.01,2013-02-18 06:05:00,
2013-02-18 00:11:00,24.4,0.7,29.64,East,95,4.0,10.5,35,0.00,,CLR,0.00,VWS V14.01,2013-02-18 06:11:00,
2013-02-18 00:17:00,24.4,0.7,29.64,SSE,163,5.4,10.5,35,0.00,,CLR,0.00,VWS V14.01,2013-02-18 06:17:00,
2013-02-18 00:22:00,24.6,0.9,29.64,SSE,156,6.3,8.1,35,0.00,,CLR,0.00,VWS V14.01,2013-02-18 06:22:00,
2013-02-18 00:28:00,24.8,1.0,29.64,SSE,161,8.3,8.3,35,0.00,,CLR,0.00,VWS V14.01,2013-02-18 06:28:00,
2013-02-18 00:33:00,24.8,1.0,29.64,SE,128,7.6,7.6,35,0.00,,CLR,0.00,VWS V14.01,2013-02-18 06:33:00,
2013-02-18 00:38:00,24.8,1.0,29.64,SSE,160,8.7,10.1,35,0.00,,CLR,0.00,VWS V14.01,2013-02-18 06:38:00,
2013-02-18 00:43:00,24.8,1.0,29.64,SSE,151,8.7,8.7,35,0.00,,CLR,0.00,VWS V14.01,2013-02-18 06:43:00,
2013-02-18 00:48:00,25.0,1.2,29.64,SSE,157,2.7,10.1,35,0.00,,CLR,0.00,VWS V14.01,2013-02-18 06:48:00,
2013-02-18 00:54:00,25.0,1.2,29.61,South,172,5.4,12.3,35,0.00,,CLR,0.00,VWS V14.01,2013-02-18 06:54:00,
2013-02-18 00:59:00,25.2,1.4,29.61,SE,139,8.1,11.0,35,0.00,,CLR,0.00,VWS V14.01,2013-02-18 06:59:00,
2013-02-18 01:05:00,25.2,1.4,29.61,SSE,147,11.4,13.2,35,0.00,,OVC090,0.00,VWS V14.01,2013-02-18 07:05:00,
2013-02-18 01:11:00,25.2,1.4,29.61,South,177,11.0,11.0,35,0.00,,OVC090,0.00,VWS V14.01,2013-02-18 07:11:00,
2013-02-18 01:17:00,25.2,1.4,29.61,SSE,162,11.0,11.0,35,0.00,,OVC090,0.00,VWS V14.01,2013-02-18 07:17:00,
2013-02-18 01:22:00,25.2,1.4,29.61,South,181,10.5,11.0,35,0.00,,OVC090,0.00,VWS V14.01,2013-02-18 07:22:00,
2013-02-18 01:27:00,25.2,1.4,29.61,South,182,5.8,8.7,35,0.00,,OVC090,0.00,VWS V14.01,2013-02-18 07:27:00,
2013-02-18 01:32:00,25.2,1.4,29.61,SE,139,11.0,11.0,35,0.00,,OVC090,0.00,VWS V14.01,2013-02-18 07:32:00,
2013-02-18 01:38:00,25.3,1.5,29.61,SSE,159,5.4,6.3,35,0.00,,OVC090,0.00,VWS V14.01,2013-02-18 07:38:00,
2013-02-18 01:43:00,25.2,1.4,29.61,SSE,158,12.3,12.3,35,0.00,,OVC090,0.00,VWS V14.01,2013-02-18 07:43:00,
2013-02-18 01:49:00,25.3,1.5,29.61,SSE,149,5.8,8.1,35,0.00,,OVC090,0.00,VWS V14.01,2013-02-18 07:49:00,
2013-02-18 01:55:00,25.3,1.5,29.58,SSE,153,4.0,8.1,35,0.00,,OVC090,0.00,VWS V14.01,2013-02-18 07:55:00,
2013-02-18 02:01:00,25.3,1.5,29.58,SSE,167,5.8,10.1,35,0.00,,CLR,0.00,VWS V14.01,2013-02-18 08:01:00,
2013-02-18 02:06:00,25.3,1.5,29.58,SSE,161,2.7,8.7,35,0.00,,CLR,0.00,VWS V14.01,2013-02-18 08:06:00,
2013-02-18 02:11:00,25.3,1.5,29.58,SSE,154,8.7,9.2,35,0.00,,CLR,0.00,VWS V14.01,2013-02-18 08:11:00,
2013-02-18 02:17:00,25.3,1.5,29.58,SSE,167,8.7,8.7,35,0.00,,CLR,0.00,VWS V14.01,2013-02-18 08:17:00,
2013-02-18 02:22:00,25.3,1.5,29.58,South,170,4.0,10.1,35,0.00,,CLR,0.00,VWS V14.01,2013-02-18 08:22:00,
2013-02-18 02:28:00,25.3,1.5,29.55,SSE,167,7.6,9.6,35,0.00,,CLR,0.00,VWS V14.01,2013-02-18 08:28:00,
2013-02-18 02:33:00,25.3,1.5,29.55,SSE,157,5.4,10.5,35,0.00,,CLR,0.00,VWS V14.01,2013-02-18 08:33:00,
2013-02-18 02:39:00,25.3,1.5,29.55,ESE,110,5.4,15.0,35,0.00,,CLR,0.00,VWS V14.01,2013-02-18 08:39:00,
2013-02-18 02:45:00,25.3,1.5,29.55,South,179,5.8,5.8,35,0.00,,CLR,0.00,VWS V14.01,2013-02-18 08:45:00,
2013-02-18 02:50:00,25.3,1.5,29.55,SSE,167,6.3,16.3,35,0.00,,CLR,0.00,VWS V14.01,2013-02-18 08:50:00,
2013-02-18 02:56:00,25.5,1.7,29.52,SE,146,5.8,12.3,35,0.00,,CLR,0.00,VWS V14.01,2013-02-18 08:56:00,
2013-02-18 03:01:00,25.5,2.3,29.52,South,175,9.2,9.2,36,0.00,,CLR,0.00,VWS V14.01,2013-02-18 09:01:00,
2013-02-18 03:07:00,25.5,2.3,29.52,SSE,165,8.3,8.3,36,0.00,,CLR,0.00,VWS V14.01,2013-02-18 09:07:00,
2013-02-18 03:12:00,25.7,2.5,29.52,South,173,8.7,9.6,36,0.00,,CLR,0.00,VWS V14.01,2013-02-18 09:12:00,
2013-02-18 03:18:00,26.1,2.8,29.52,South,177,11.0,12.3,36,0.00,,CLR,0.00,VWS V14.01,2013-02-18 09:18:00,
2013-02-18 03:24:00,26.1,2.8,29.52,SSE,151,8.1,12.3,36,0.00,,CLR,0.00,VWS V14.01,2013-02-18 09:24:00,
2013-02-18 03:30:00,26.1,2.8,29.52,South,185,8.7,11.0,36,0.00,,CLR,0.00,VWS V14.01,2013-02-18 09:30:00,
2013-02-18 03:35:00,26.2,2.9,29.52,SSE,166,10.1,12.8,36,0.00,,CLR,0.00,VWS V14.01,2013-02-18 09:35:00,
2013-02-18 03:40:00,26.2,2.9,29.49,South,171,5.4,11.0,36,0.00,,CLR,0.00,VWS V14.01,2013-02-18 09:40:00,
2013-02-18 03:46:00,26.2,2.9,29.49,SE,141,6.3,8.3,36,0.00,,CLR,0.00,VWS V14.01,2013-02-18 09:46:00,
2013-02-18 03:52:00,26.2,2.9,29.49,SE,136,6.3,7.2,36,0.00,,CLR,0.00,VWS V14.01,2013-02-18 09:52:00,
2013-02-18 03:57:00,26.2,2.9,29.49,ESE,110,5.8,10.5,36,0.00,,CLR,0.00,VWS V14.01,2013-02-18 09:57:00,
2013-02-18 04:02:00,26.2,3.5,29.49,SE,140,14.5,14.5,37,0.00,,CLR,0.00,VWS V14.01,2013-02-18 10:02:00,
2013-02-18 04:08:00,26.4,3.7,29.49,SSW,204,8.7,12.3,37,0.00,,CLR,0.00,VWS V14.01,2013-02-18 10:08:00,
2013-02-18 04:14:00,26.6,3.3,29.49,SSE,154,12.8,12.8,36,0.00,,CLR,0.00,VWS V14.01,2013-02-18 10:14:00,
2013-02-18 04:20:00,26.8,3.4,29.49,South,169,8.7,14.5,36,0.00,,CLR,0.00,VWS V14.01,2013-02-18 10:20:00,
2013-02-18 04:25:00,26.6,3.3,29.49,SE,140,16.8,16.8,36,0.00,,CLR,0.00,VWS V14.01,2013-02-18 10:25:00,
2013-02-18 04:31:00,26.6,3.8,29.49,SE,144,10.1,13.2,37,0.00,,CLR,0.00,VWS V14.01,2013-02-18 10:31:00,
2013-02-18 04:37:00,26.4,3.7,29.49,South,182,7.6,12.3,37,0.00,,CLR,0.00,VWS V14.01,2013-02-18 10:37:00,
2013-02-18 04:42:00,26.6,3.8,29.49,South,176,8.3,13.2,37,0.00,,CLR,0.00,VWS V14.01,2013-02-18 10:42:00,
2013-02-18 04:47:00,26.6,4.4,29.49,SSE,149,10.5,10.5,38,0.00,,CLR,0.00,VWS V14.01,2013-02-18 10:47:00,
2013-02-18 04:52:00,26.8,4.0,29.49,SSE,154,12.8,12.8,37,0.00,,CLR,0.00,VWS V14.01,2013-02-18 10:52:00,
2013-02-18 04:58:00,26.8,4.0,29.46,SSE,168,12.8,16.3,37,0.00,,CLR,0.00,VWS V14.01,2013-02-18 10:58:00,
2013-02-18 05:03:00,27.0,4.8,29.46,SSE,158,14.1,14.1,38,0.00,,CLR,0.00,VWS V14.01,2013-02-18 11:03:00,
2013-02-18 05:08:00,27.0,4.8,29.46,SSE,154,8.3,10.1,38,0.00,,CLR,0.00,VWS V14.01,2013-02-18 11:08:00,
2013-02-18 05:14:00,27.0,4.8,29.46,SSE,167,11.0,11.0,38,0.00,,CLR,0.00,VWS V14.01,2013-02-18 11:14:00,
2013-02-18 05:20:00,27.0,4.8,29.46,SSE,164,8.7,8.7,38,0.00,,CLR,0.00,VWS V14.01,2013-02-18 11:20:00,
2013-02-18 05:26:00,27.0,4.8,29.46,SE,146,8.3,11.0,38,0.00,,CLR,0.00,VWS V14.01,2013-02-18 11:26:00,
2013-02-18 05:31:00,27.0,4.8,29.46,SSE,150,8.7,8.7,38,0.00,,CLR,0.00,VWS V14.01,2013-02-18 11:31:00,
2013-02-18 05:36:00,27.0,4.8,29.46,SSE,151,11.9,15.4,38,0.00,,CLR,0.00,VWS V14.01,2013-02-18 11:36:00,
2013-02-18 05:42:00,27.1,4.9,29.43,South,179,10.5,12.3,38,0.00,,CLR,0.00,VWS V14.01,2013-02-18 11:42:00,
2013-02-18 05:48:00,27.0,4.8,29.43,SSE,156,11.0,11.0,38,0.00,,CLR,0.00,VWS V14.01,2013-02-18 11:48:00,
2013-02-18 05:54:00,27.0,4.8,29.43,SE,143,10.1,10.5,38,0.00,,CLR,0.00,VWS V14.01,2013-02-18 11:54:00,
2013-02-18 05:59:00,27.1,4.9,29.43,South,172,11.0,11.0,38,0.00,,CLR,0.00,VWS V14.01,2013-02-18 11:59:00,
2013-02-18 06:05:00,27.1,5.5,29.43,South,176,8.1,10.1,39,0.00,,CLR,0.00,VWS V14.01,2013-02-18 12:05:00,
2013-02-18 06:10:00,27.1,5.5,29.43,SSE,147,8.7,8.7,39,0.00,,CLR,0.00,VWS V14.01,2013-02-18 12:10:00,
2013-02-18 06:15:00,27.0,5.3,29.43,South,172,3.6,8.1,39,0.00,,CLR,0.00,VWS V14.01,2013-02-18 12:15:00,
2013-02-18 06:20:00,27.0,5.3,29.43,SSE,155,8.3,10.5,39,0.00,,CLR,0.00,VWS V14.01,2013-02-18 12:20:00,
2013-02-18 06:25:00,27.0,5.3,29.43,South,180,3.6,7.2,39,0.00,,CLR,0.00,VWS V14.01,2013-02-18 12:25:00,
2013-02-18 06:30:00,27.0,5.9,29.43,SSE,147,9.6,10.1,40,0.00,,CLR,0.00,VWS V14.01,2013-02-18 12:30:00,
2013-02-18 06:36:00,27.1,6.0,29.43,SSE,163,3.6,10.1,40,0.00,,CLR,0.00,VWS V14.01,2013-02-18 12:36:00,
2013-02-18 06:41:00,27.1,6.0,29.43,South,176,12.8,12.8,40,0.00,,CLR,0.00,VWS V14.01,2013-02-18 12:41:00,
2013-02-18 06:47:00,27.0,5.9,29.43,SSE,153,8.1,8.1,40,0.00,,CLR,0.00,VWS V14.01,2013-02-18 12:47:00,
2013-02-18 06:52:00,27.0,6.4,29.43,South,178,6.3,10.1,41,0.00,,CLR,0.00,VWS V14.01,2013-02-18 12:52:00,
2013-02-18 06:58:00,27.0,6.4,29.43,SSE,160,5.8,8.7,41,0.00,,CLR,0.00,VWS V14.01,2013-02-18 12:58:00,
2013-02-18 07:03:00,26.8,6.2,29.43,South,178,5.4,8.3,41,0.00,,CLR,0.00,VWS V14.01,2013-02-18 13:03:00,
2013-02-18 07:09:00,26.8,6.2,29.43,South,172,4.0,6.7,41,0.00,,CLR,0.00,VWS V14.01,2013-02-18 13:09:00,
2013-02-18 07:15:00,26.6,6.1,29.43,SSE,165,8.3,8.3,41,0.00,,CLR,0.00,VWS V14.01,2013-02-18 13:15:00,
2013-02-18 07:20:00,26.6,6.1,29.43,South,170,5.4,10.1,41,0.00,,CLR,0.00,VWS V14.01,2013-02-18 13:20:00,
2013-02-18 07:26:00,26.6,6.6,29.40,South,187,8.7,9.2,42,0.00,,CLR,0.00,VWS V14.01,2013-02-18 13:26:00,
2013-02-18 07:31:00,26.8,6.2,29.40,South,176,7.2,10.5,41,0.00,,CLR,0.00,VWS V14.01,2013-02-18 13:31:00,
2013-02-18 07:36:00,26.8,6.2,29.40,SSE,150,10.1,10.1,41,0.00,,CLR,0.00,VWS V14.01,2013-02-18 13:36:00,
2013-02-18 07:41:00,27.0,6.4,29.40,SE,143,7.6,11.0,41,0.00,,CLR,0.00,VWS V14.01,2013-02-18 13:41:00,
2013-02-18 07:46:00,27.0,6.4,29.40,SSE,162,6.3,11.0,41,0.00,,CLR,0.00,VWS V14.01,2013-02-18 13:46:00,
2013-02-18 07:52:00,27.0,6.4,29.40,SSW,195,5.8,8.1,41,0.00,,CLR,0.00,VWS V14.01,2013-02-18 13:52:00,
2013-02-18 07:57:00,27.1,6.6,29.40,SSE,153,8.1,8.1,41,0.00,,CLR,0.00,VWS V14.01,2013-02-18 13:57:00,
2013-02-18 08:03:00,27.3,6.7,29.40,SSE,153,6.3,6.3,41,0.00,,CLR,0.00,VWS V14.01,2013-02-18 14:03:00,
2013-02-18 08:08:00,27.5,6.9,29.40,SSE,160,7.6,7.6,41,0.00,,CLR,0.00,VWS V14.01,2013-02-18 14:08:00,
2013-02-18 08:13:00,27.9,7.2,29.40,SSE,150,5.4,6.3,41,0.00,,CLR,0.00,VWS V14.01,2013-02-18 14:13:00,
2013-02-18 08:19:00,28.0,7.4,29.40,South,170,5.4,8.3,41,0.00,,CLR,0.00,VWS V14.01,2013-02-18 14:19:00,
2013-02-18 08:25:00,28.2,7.6,29.40,South,169,8.3,8.3,41,0.00,,CLR,0.00,VWS V14.01,2013-02-18 14:25:00,
2013-02-18 08:30:00,28.6,7.9,29.40,SSE,164,8.1,10.1,41,0.00,,CLR,0.00,VWS V14.01,2013-02-18 14:30:00,
2013-02-18 08:35:00,28.8,8.0,29.40,South,182,4.9,10.5,41,0.00,,CLR,0.00,VWS V14.01,2013-02-18 14:35:00,
2013-02-18 08:41:00,28.9,8.2,29.40,South,179,8.1,8.1,41,0.00,,CLR,0.00,VWS V14.01,2013-02-18 14:41:00,
2013-02-18 08:47:00,29.3,8.5,29.40,South,175,4.9,8.1,41,0.00,,CLR,0.00,VWS V14.01,2013-02-18 14:47:00,
2013-02-18 08:53:00,29.5,8.7,29.40,SSE,154,4.0,8.3,41,0.00,,CLR,0.00,VWS V14.01,2013-02-18 14:53:00,
2013-02-18 08:59:00,29.5,8.7,29.40,SSE,168,5.8,8.7,41,0.00,,CLR,0.00,VWS V14.01,2013-02-18 14:59:00,
2013-02-18 09:04:00,29.5,8.7,29.40,South,181,4.0,8.1,41,0.00,,CLR,0.00,VWS V14.01,2013-02-18 15:04:00,
2013-02-18 09:10:00,29.7,8.9,29.40,South,186,5.8,6.3,41,0.00,,CLR,0.00,VWS V14.01,2013-02-18 15:10:00,
2013-02-18 09:15:00,29.7,8.9,29.40,South,180,4.0,7.2,41,0.00,,CLR,0.00,VWS V14.01,2013-02-18 15:15:00,
2013-02-18 09:21:00,29.8,9.0,29.40,SSE,165,3.6,7.6,41,0.00,,CLR,0.00,VWS V14.01,2013-02-18 15:21:00,
2013-02-18 09:26:00,29.8,9.0,29.37,SSW,210,4.9,6.3,41,0.00,,CLR,0.00,VWS V14.01,2013-02-18 15:26:00,
2013-02-18 09:32:00,30.0,9.2,29.37,South,180,4.9,5.4,41,0.00,,CLR,0.00,VWS V14.01,2013-02-18 15:32:00,
2013-02-18 09:38:00,30.4,9.5,29.37,ESE,120,5.8,5.8,41,0.00,,CLR,0.00,VWS V14.01,2013-02-18 15:38:00,
2013-02-18 09:44:00,30.9,10.0,29.37,South,179,5.4,7.6,41,0.00,,CLR,0.00,VWS V14.01,2013-02-18 15:44:00,
2013-02-18 09:52:00,31.6,10.6,29.37,South,169,5.8,6.3,41,0.00,,CLR,0.00,VWS V14.01,2013-02-18 15:52:00,
2013-02-18 09:57:00,32.2,11.1,29.37,SSE,167,8.1,8.1,41,0.00,,CLR,0.00,VWS V14.01,2013-02-18 15:57:00,
2013-02-18 10:02:00,32.4,11.3,29.37,SSW,192,7.6,7.6,41,0.00,,CLR,0.00,VWS V14.01,2013-02-18 16:02:00,
2013-02-18 10:07:00,32.7,11.6,29.37,SSE,154,5.8,8.7,41,0.00,,CLR,0.00,VWS V14.01,2013-02-18 16:07:00,
2013-02-18 10:12:00,32.9,11.8,29.37,South,188,4.0,5.8,41,0.00,,CLR,0.00,VWS V14.01,2013-02-18 16:12:00,
2013-02-18 10:17:00,33.3,12.1,29.37,SSE,153,4.9,8.3,41,0.00,,CLR,0.00,VWS V14.01,2013-02-18 16:17:00,
2013-02-18 10:22:00,33.6,12.4,29.37,South,169,6.3,6.3,41,0.00,,CLR,0.00,VWS V14.01,2013-02-18 16:22:00,
2013-02-18 10:28:00,34.3,12.5,29.37,ESE,107,3.1,7.6,40,0.00,,CLR,0.00,VWS V14.01,2013-02-18 16:28:00,
2013-02-18 10:33:00,34.5,12.7,29.37,SSE,150,5.8,8.1,40,0.00,,CLR,0.00,VWS V14.01,2013-02-18 16:33:00,
2013-02-18 10:38:00,34.9,13.0,29.34,South,189,6.3,6.3,40,0.00,,CLR,0.00,VWS V14.01,2013-02-18 16:38:00,
2013-02-18 10:44:00,35.2,13.4,29.34,South,190,4.9,7.6,40,0.00,,CLR,0.00,VWS V14.01,2013-02-18 16:44:00,
2013-02-18 10:49:00,35.4,13.5,29.34,South,170,5.8,6.3,40,0.00,,CLR,0.00,VWS V14.01,2013-02-18 16:49:00,
2013-02-18 10:55:00,35.6,13.7,29.34,SSE,166,8.3,8.3,40,0.00,,CLR,0.00,VWS V14.01,2013-02-18 16:55:00,
2013-02-18 11:00:00,35.8,13.8,29.34,South,177,5.4,8.1,40,0.00,,CLR,0.00,VWS V14.01,2013-02-18 17:00:00,
2013-02-18 11:06:00,36.0,14.0,29.34,South,174,3.6,7.6,40,0.00,,CLR,0.00,VWS V14.01,2013-02-18 17:06:00,
2013-02-18 11:12:00,36.1,14.2,29.34,South,179,6.3,8.1,40,0.00,,CLR,0.00,VWS V14.01,2013-02-18 17:12:00,
2013-02-18 11:17:00,36.3,14.3,29.34,SSW,206,10.5,10.5,40,0.00,,CLR,0.00,VWS V14.01,2013-02-18 17:17:00,
2013-02-18 11:23:00,36.9,14.8,29.34,SSW,197,4.9,6.3,40,0.00,,CLR,0.00,VWS V14.01,2013-02-18 17:23:00,
2013-02-18 11:28:00,37.0,15.0,29.34,SSW,197,4.0,8.3,40,0.00,,CLR,0.00,VWS V14.01,2013-02-18 17:28:00,
2013-02-18 11:34:00,37.9,15.2,29.34,South,180,5.8,5.8,39,0.00,,CLR,0.00,VWS V14.01,2013-02-18 17:34:00,
2013-02-18 11:39:00,38.1,15.4,29.34,SSW,193,5.4,8.1,39,0.00,,CLR,0.00,VWS V14.01,2013-02-18 17:39:00,
2013-02-18 11:45:00,38.1,15.4,29.34,South,191,5.4,5.8,39,0.00,,CLR,0.00,VWS V14.01,2013-02-18 17:45:00,
2013-02-18 11:51:00,38.3,15.5,29.34,SSW,194,4.0,8.1,39,0.00,,CLR,0.00,VWS V14.01,2013-02-18 17:51:00,
2013-02-18 11:56:00,38.5,15.7,29.31,South,183,5.8,8.3,39,0.00,,CLR,0.00,VWS V14.01,2013-02-18 17:56:00,
2013-02-18 12:01:00,38.5,15.1,29.31,South,186,5.8,8.3,38,0.00,,CLR,0.00,VWS V14.01,2013-02-18 18:01:00,
2013-02-18 12:07:00,38.3,15.5,29.31,WSW,239,3.1,5.4,39,0.00,,CLR,0.00,VWS V14.01,2013-02-18 18:07:00,
2013-02-18 12:12:00,38.1,15.4,29.31,SSE,162,4.9,8.1,39,0.00,,CLR,0.00,VWS V14.01,2013-02-18 18:12:00,
2013-02-18 12:18:00,38.5,15.7,29.31,SE,136,5.8,5.8,39,0.00,,CLR,0.00,VWS V14.01,2013-02-18 18:18:00,
2013-02-18 12:23:00,38.7,15.9,29.31,SSW,209,5.8,8.7,39,0.00,,CLR,0.00,VWS V14.01,2013-02-18 18:23:00,
2013-02-18 12:28:00,38.5,15.7,29.31,SSW,204,8.3,8.3,39,0.00,,CLR,0.00,VWS V14.01,2013-02-18 18:28:00,
2013-02-18 12:34:00,38.7,15.9,29.31,South,170,5.8,5.8,39,0.00,,CLR,0.00,VWS V14.01,2013-02-18 18:34:00,
2013-02-18 12:40:00,38.8,16.0,29.31,South,181,6.3,10.5,39,0.00,,CLR,0.00,VWS V14.01,2013-02-18 18:40:00,
2013-02-18 12:46:00,39.2,16.3,29.31,South,189,3.6,6.3,39,0.00,,CLR,0.00,VWS V14.01,2013-02-18 18:46:00,
2013-02-18 12:51:00,39.0,16.2,29.31,South,188,4.0,6.3,39,0.00,,CLR,0.00,VWS V14.01,2013-02-18 18:51:00,
2013-02-18 12:57:00,39.2,16.3,29.28,SSW,199,5.8,5.8,39,0.00,,CLR,0.00,VWS V14.01,2013-02-18 18:57:00,
2013-02-18 13:03:00,39.2,16.3,29.28,South,177,2.7,4.9,39,0.00,,CLR,0.00,VWS V14.01,2013-02-18 19:03:00,
2013-02-18 13:09:00,39.6,16.7,29.28,South,176,5.4,5.4,39,0.00,,CLR,0.00,VWS V14.01,2013-02-18 19:09:00,
2013-02-18 13:15:00,39.9,17.0,29.28,South,182,5.8,5.8,39,0.00,,CLR,0.00,VWS V14.01,2013-02-18 19:15:00,
2013-02-18 13:20:00,40.5,16.9,29.28,South,186,4.0,5.4,38,0.00,,CLR,0.00,VWS V14.01,2013-02-18 19:20:00,
2013-02-18 13:26:00,40.3,16.7,29.28,South,190,3.6,5.4,38,0.00,,CLR,0.00,VWS V14.01,2013-02-18 19:26:00,
2013-02-18 13:31:00,40.3,17.3,29.28,SSE,163,8.1,8.1,39,0.00,,CLR,0.00,VWS V14.01,2013-02-18 19:31:00,
2013-02-18 13:37:00,40.5,17.5,29.28,South,186,3.6,6.3,39,0.00,,CLR,0.00,VWS V14.01,2013-02-18 19:37:00,
2013-02-18 13:42:00,40.3,17.3,29.28,South,185,5.8,5.8,39,0.00,,CLR,0.00,VWS V14.01,2013-02-18 19:42:00,
2013-02-18 13:47:00,40.3,17.3,29.28,SSW,194,4.9,5.8,39,0.00,,CLR,0.00,VWS V14.01,2013-02-18 19:47:00,
2013-02-18 13:52:00,40.6,17.6,29.28,SSW,192,4.9,4.9,39,0.00,,CLR,0.00,VWS V14.01,2013-02-18 19:52:00,
2013-02-18 13:57:00,41.0,17.4,29.28,SSE,155,4.0,6.3,38,0.00,,CLR,0.00,VWS V14.01,2013-02-18 19:57:00,
2013-02-18 14:02:00,41.2,17.5,29.28,SE,139,3.1,4.9,38,0.00,,CLR,0.00,VWS V14.01,2013-02-18 20:02:00,
2013-02-18 14:08:00,41.4,17.7,29.28,SSW,196,5.4,5.8,38,0.00,,CLR,0.00,VWS V14.01,2013-02-18 20:08:00,
2013-02-18 14:13:00,41.7,18.0,29.28,South,184,3.6,5.4,38,0.00,,CLR,0.00,VWS V14.01,2013-02-18 20:13:00,
2013-02-18 14:18:00,41.7,18.0,29.28,South,182,3.1,3.1,38,0.00,,CLR,0.00,VWS V14.01,2013-02-18 20:18:00,
2013-02-18 14:24:00,41.9,18.2,29.28,South,169,3.1,7.2,38,0.00,,CLR,0.00,VWS V14.01,2013-02-18 20:24:00,
2013-02-18 14:29:00,42.1,17.7,29.28,South,183,5.8,7.6,37,0.00,,CLR,0.00,VWS V14.01,2013-02-18 20:29:00,
2013-02-18 14:34:00,41.9,18.2,29.28,SSW,194,3.1,4.9,38,0.00,,CLR,0.00,VWS V14.01,2013-02-18 20:34:00,
2013-02-18 14:39:00,41.9,18.2,29.28,SSW,195,0.0,3.6,38,0.00,,CLR,0.00,VWS V14.01,2013-02-18 20:39:00,
2013-02-18 14:44:00,41.5,17.8,29.28,SSW,212,4.0,4.0,38,0.00,,CLR,0.00,VWS V14.01,2013-02-18 20:44:00,
2013-02-18 14:49:00,40.8,17.8,29.28,SSW,196,3.6,4.9,39,0.00,,CLR,0.00,VWS V14.01,2013-02-18 20:49:00,
2013-02-18 14:55:00,40.5,17.5,29.28,SSE,157,3.1,4.0,39,0.00,,CLR,0.00,VWS V14.01,2013-02-18 20:55:00,
2013-02-18 15:00:00,40.3,17.9,29.28,SSW,201,0.0,4.0,40,0.00,,CLR,0.00,VWS V14.01,2013-02-18 21:00:00,
2013-02-18 15:06:00,39.9,17.6,29.28,South,187,3.6,4.0,40,0.00,,CLR,0.00,VWS V14.01,2013-02-18 21:06:00,
2013-02-18 15:11:00,39.9,17.6,29.28,South,173,0.0,0.0,40,0.00,,CLR,0.00,VWS V14.01,2013-02-18 21:11:00,
2013-02-18 15:17:00,39.7,18.0,29.28,SSW,211,0.0,0.0,41,0.00,,CLR,0.00,VWS V14.01,2013-02-18 21:17:00,
2013-02-18 15:22:00,39.9,18.1,29.28,South,176,0.0,0.0,41,0.00,,CLR,0.00,VWS V14.01,2013-02-18 21:22:00,
2013-02-18 15:28:00,40.5,18.6,29.26,South,169,0.0,4.0,41,0.00,,CLR,0.00,VWS V14.01,2013-02-18 21:28:00,
2013-02-18 15:33:00,41.2,18.7,29.26,SSE,155,5.8,6.7,40,0.00,,CLR,0.00,VWS V14.01,2013-02-18 21:33:00,
2013-02-18 15:39:00,41.4,18.9,29.23,SSE,156,3.6,4.0,40,0.00,,CLR,0.00,VWS V14.01,2013-02-18 21:39:00,
2013-02-18 15:45:00,41.2,18.7,29.23,South,185,3.6,4.5,40,0.00,,CLR,0.00,VWS V14.01,2013-02-18 21:45:00,
2013-02-18 15:51:00,40.3,18.5,29.23,South,173,4.0,4.0,41,0.00,,CLR,0.00,VWS V14.01,2013-02-18 21:51:00,
2013-02-18 15:56:00,39.9,18.7,29.23,SSW,203,3.1,5.4,42,0.00,,CLR,0.00,VWS V14.01,2013-02-18 21:56:00,
2013-02-18 16:01:00,39.9,19.2,29.23,SSW,192,2.7,4.0,43,0.00,,SCT055,0.00,VWS V14.01,2013-02-18 22:01:00,
2013-02-18 16:06:00,39.7,19.1,29.23,SSW,192,2.7,2.7,43,0.00,,SCT055,0.00,VWS V14.01,2013-02-18 22:06:00,
2013-02-18 16:11:00,39.7,19.6,29.23,SW,231,2.7,4.0,44,0.00,,SCT055,0.00,VWS V14.01,2013-02-18 22:11:00,
2013-02-18 16:17:00,39.7,19.6,29.23,South,191,3.1,4.0,44,0.00,,SCT055,0.00,VWS V14.01,2013-02-18 22:17:00,
2013-02-18 16:22:00,39.6,19.5,29.23,SSW,213,0.0,3.1,44,0.00,,SCT055,0.00,VWS V14.01,2013-02-18 22:22:00,
2013-02-18 16:27:00,39.6,20.0,29.23,SW,227,0.0,0.0,45,0.00,,SCT055,0.00,VWS V14.01,2013-02-18 22:27:00,
2013-02-18 16:32:00,39.6,20.5,29.23,SW,226,3.6,4.0,46,0.00,,SCT055,0.00,VWS V14.01,2013-02-18 22:32:00,
2013-02-18 16:38:00,39.6,21.0,29.23,SW,225,3.6,5.4,47,0.00,,SCT055,0.00,VWS V14.01,2013-02-18 22:38:00,
2013-02-18 16:43:00,39.4,20.8,29.23,WSW,240,3.6,3.6,47,0.00,,SCT055,0.00,VWS V14.01,2013-02-18 22:43:00,
2013-02-18 16:48:00,39.4,20.8,29.23,WSW,240,4.0,4.0,47,0.00,,SCT055,0.00,VWS V14.01,2013-02-18 22:48:00,
2013-02-18 16:54:00,39.2,20.7,29.23,SW,233,0.0,0.0,47,0.00,,SCT055,0.00,VWS V14.01,2013-02-18 22:54:00,
2013-02-18 16:59:00,39.0,21.0,29.23,WSW,244,0.0,0.0,48,0.00,,SCT055,0.00,VWS V14.01,2013-02-18 22:59:00,
2013-02-18 17:05:00,38.8,20.8,29.23,WSW,244,0.0,0.0,48,0.00,,OVC055,0.00,VWS V14.01,2013-02-18 23:05:00,
2013-02-18 17:11:00,38.7,20.7,29.23,WSW,244,0.0,0.0,48,0.00,,OVC055,0.00,VWS V14.01,2013-02-18 23:11:00,
2013-02-18 17:16:00,38.3,20.4,29.23,WSW,244,0.0,0.0,48,0.00,,OVC055,0.00,VWS V14.01,2013-02-18 23:16:00,
2013-02-18 17:22:00,37.9,20.0,29.23,WSW,244,0.0,0.0,48,0.00,,OVC055,0.00,VWS V14.01,2013-02-18 23:22:00,
2013-02-18 17:27:00,37.9,20.0,29.23,WSW,244,0.0,0.0,48,0.00,,OVC055,0.00,VWS V14.01,2013-02-18 23:27:00,
2013-02-18 17:32:00,37.9,20.5,29.23,WSW,244,0.0,0.0,49,0.00,,OVC055,0.00,VWS V14.01,2013-02-18 23:32:00,
2013-02-18 17:37:00,37.9,20.5,29.23,WSW,244,0.0,0.0,49,0.00,,OVC055,0.00,VWS V14.01,2013-02-18 23:37:00,
2013-02-18 17:42:00,37.9,20.5,29.23,WSW,244,0.0,0.0,49,0.00,,OVC055,0.00,VWS V14.01,2013-02-18 23:42:00,
2013-02-18 17:48:00,37.4,20.0,29.23,WSW,244,0.0,0.0,49,0.00,,OVC055,0.00,VWS V14.01,2013-02-18 23:48:00,
2013-02-18 17:53:00,37.4,20.0,29.23,WSW,244,0.0,0.0,49,0.00,,OVC055,0.00,VWS V14.01,2013-02-18 23:53:00,
2013-02-18 17:58:00,37.2,20.3,29.23,WSW,244,0.0,0.0,50,0.00,,OVC055,0.00,VWS V14.01,2013-02-18 23:58:00,
2013-02-18 18:04:00,37.0,20.1,29.23,WSW,244,0.0,0.0,50,0.00,,OVC029,0.00,VWS V14.01,2013-02-19 00:04:00,
2013-02-18 18:09:00,36.9,20.0,29.23,WSW,256,2.7,3.1,50,0.00,,OVC029,0.00,VWS V14.01,2013-02-19 00:09:00,
2013-02-18 18:15:00,36.7,19.8,29.23,WNW,301,3.1,3.1,50,0.00,,OVC029,0.00,VWS V14.01,2013-02-19 00:15:00,
2013-02-18 18:20:00,36.7,20.3,29.23,NW,312,3.6,3.6,51,0.00,,OVC029,0.00,VWS V14.01,2013-02-19 00:20:00,
2013-02-18 18:25:00,36.7,20.3,29.23,NW,326,3.6,6.3,51,0.00,,OVC029,0.00,VWS V14.01,2013-02-19 00:25:00,
2013-02-18 18:30:00,36.9,20.9,29.23,NW,304,4.0,5.4,52,0.00,,OVC029,0.00,VWS V14.01,2013-02-19 00:30:00,
2013-02-18 18:35:00,36.9,21.3,29.23,NW,304,4.0,5.8,53,0.00,,OVC029,0.00,VWS V14.01,2013-02-19 00:35:00,
2013-02-18 18:40:00,36.9,21.8,29.23,NW,311,4.9,5.8,54,0.00,,OVC029,0.00,VWS V14.01,2013-02-19 00:40:00,
2013-02-18 18:46:00,36.9,22.2,29.23,NW,315,7.6,7.6,55,0.00,,OVC029,0.00,VWS V14.01,2013-02-19 00:46:00,
2013-02-18 18:52:00,36.7,22.9,29.23,NW,314,7.2,9.6,57,0.00,,OVC029,0.00,VWS V14.01,2013-02-19 00:52:00,
2013-02-18 18:58:00,36.7,23.7,29.23,WNW,299,9.2,9.2,59,0.00,,OVC029,0.00,VWS V14.01,2013-02-19 00:58:00,
2013-02-18 19:03:00,36.5,24.0,29.23,WNW,299,7.2,8.7,60,0.00,,OVC027,0.00,VWS V14.01,2013-02-19 01:03:00,
2013-02-18 19:08:00,36.5,24.0,29.23,NW,310,8.1,10.5,60,0.00,,OVC027,0.00,VWS V14.01,2013-02-19 01:08:00,
2013-02-18 19:13:00,36.3,23.8,29.23,WNW,296,5.4,9.2,60,0.00,,OVC027,0.00,VWS V14.01,2013-02-19 01:13:00,
2013-02-18 19:18:00,36.3,23.8,29.23,NW,311,6.3,7.6,60,0.00,,OVC027,0.00,VWS V14.01,2013-02-19 01:18:00,
2013-02-18 19:23:00,36.3,23.8,29.20,NW,326,5.8,10.1,60,0.00,,OVC027,0.00,VWS V14.01,2013-02-19 01:23:00,
2013-02-18 19:29:00,36.1,23.2,29.20,NNW,348,6.3,8.1,59,0.00,,OVC027,0.00,VWS V14.01,2013-02-19 01:29:00,
2013-02-18 19:34:00,35.8,23.3,29.20,NW,324,5.8,6.7,60,0.00,,OVC027,0.00,VWS V14.01,2013-02-19 01:34:00,
2013-02-18 19:39:00,35.4,22.9,29.20,WNW,303,6.3,8.7,60,0.00,,OVC027,0.00,VWS V14.01,2013-02-19 01:39:00,
2013-02-18 19:44:00,35.1,23.4,29.20,NNW,333,8.1,10.5,62,0.00,,OVC027,0.00,VWS V14.01,2013-02-19 01:44:00,
2013-02-18 19:50:00,34.5,23.6,29.20,NW,319,8.1,10.1,64,0.00,,OVC027,0.00,VWS V14.01,2013-02-19 01:50:00,
2013-02-18 19:56:00,34.2,24.0,29.20,NW,318,10.5,10.5,66,0.00,,OVC027,0.00,VWS V14.01,2013-02-19 01:56:00,
2013-02-18 20:01:00,33.8,24.0,29.20,NNW,331,3.1,6.7,67,0.00,,-RA,0.00,VWS V14.01,2013-02-19 02:01:00,
2013-02-18 20:06:00,33.6,24.2,29.20,NW,325,3.6,5.4,68,0.00,,-RA,0.00,VWS V14.01,2013-02-19 02:06:00,
2013-02-18 20:12:00,33.3,24.2,29.20,NW,308,4.9,4.9,69,0.00,,-RA,0.00,VWS V14.01,2013-02-19 02:12:00,
2013-02-18 20:18:00,33.3,24.5,29.20,NW,312,4.9,5.4,70,0.00,,-RA,0.00,VWS V14.01,2013-02-19 02:18:00,
2013-02-18 20:23:00,33.1,24.7,29.20,WNW,295,6.3,6.3,71,0.00,,-RA,0.00,VWS V14.01,2013-02-19 02:23:00,
2013-02-18 20:29:00,33.1,25.0,29.20,WNW,302,5.4,5.8,72,0.00,,-RA,0.00,VWS V14.01,2013-02-19 02:29:00,
2013-02-18 20:35:00,33.1,25.4,29.20,NW,316,5.8,6.3,73,0.00,,-RA,0.00,VWS V14.01,2013-02-19 02:35:00,
2013-02-18 20:41:00,32.9,25.2,29.20,NW,315,3.1,5.8,73,0.00,,-RA,0.00,VWS V14.01,2013-02-19 02:41:00,
2013-02-18 20:47:00,32.9,25.5,29.20,NW,306,5.4,5.8,74,0.00,,-RA,0.00,VWS V14.01,2013-02-19 02:47:00,
2013-02-18 20:53:00,32.7,25.7,29.20,NW,313,4.0,5.8,75,0.00,,-RA,0.00,VWS V14.01,2013-02-19 02:53:00,
2013-02-18 20:58:00,32.7,25.7,29.20,NW,325,5.8,8.1,75,0.00,,-RA,0.00,VWS V14.01,2013-02-19 02:58:00,
2013-02-18 21:03:00,32.7,25.7,29.20,NNW,333,5.4,5.4,75,0.00,,,0.00,VWS V14.01,2013-02-19 03:03:00,
2013-02-18 21:08:00,32.7,26.0,29.20,NW,320,5.8,6.3,76,0.00,,,0.00,VWS V14.01,2013-02-19 03:08:00,
2013-02-18 21:15:00,32.7,26.0,29.20,NW,307,4.9,6.3,76,0.00,,,0.00,VWS V14.01,2013-02-19 03:15:00,
2013-02-18 21:20:00,32.7,26.3,29.20,WNW,293,5.4,5.4,77,0.00,,,0.00,VWS V14.01,2013-02-19 03:20:00,
2013-02-18 21:25:00,32.5,26.1,29.20,NW,314,7.6,8.3,77,0.00,,,0.00,VWS V14.01,2013-02-19 03:25:00,
2013-02-18 21:30:00,32.5,26.1,29.20,NW,314,6.3,8.3,77,0.00,,,0.00,VWS V14.01,2013-02-19 03:30:00,
2013-02-18 21:35:00,32.5,26.1,29.20,NW,320,8.3,8.3,77,0.00,,,0.00,VWS V14.01,2013-02-19 03:35:00,
2013-02-18 21:41:00,32.5,26.1,29.20,WNW,301,6.3,6.3,77,0.00,,,0.00,VWS V14.01,2013-02-19 03:41:00,
2013-02-18 21:46:00,32.5,26.5,29.20,NW,321,7.6,7.6,78,0.00,,,0.00,VWS V14.01,2013-02-19 03:46:00,
2013-02-18 21:51:00,32.5,26.5,29.20,NNW,345,5.4,7.6,78,0.00,,,0.00,VWS V14.01,2013-02-19 03:51:00,
2013-02-18 21:57:00,32.5,26.5,29.17,WNW,294,5.8,8.3,78,0.00,,,0.00,VWS V14.01,2013-02-19 03:57:00,
2013-02-18 22:03:00,32.5,26.5,29.17,WNW,303,10.1,13.2,78,0.00,,,0.00,VWS V14.01,2013-02-19 04:03:00,
2013-02-18 22:09:00,32.4,26.3,29.17,NW,315,8.7,10.5,78,0.00,,,0.00,VWS V14.01,2013-02-19 04:09:00,
2013-02-18 22:14:00,32.2,26.4,29.17,NW,309,7.6,8.3,79,0.00,,,0.00,VWS V14.01,2013-02-19 04:14:00,
2013-02-18 22:20:00,32.2,26.4,29.17,NW,318,6.7,8.3,79,0.00,,,0.00,VWS V14.01,2013-02-19 04:20:00,
2013-02-18 22:25:00,32.2,26.7,29.20,NW,316,12.8,12.8,80,0.00,,,0.00,VWS V14.01,2013-02-19 04:25:00,
2013-02-18 22:31:00,31.8,26.4,29.20,NNW,327,12.3,13.6,80,0.00,,,0.00,VWS V14.01,2013-02-19 04:31:00,
2013-02-18 22:36:00,31.8,26.7,29.20,WNW,295,9.6,9.6,81,0.00,,,0.00,VWS V14.01,2013-02-19 04:36:00,
2013-02-18 22:41:00,31.6,26.8,29.20,NNW,329,6.3,10.5,82,0.00,,,0.00,VWS V14.01,2013-02-19 04:41:00,
2013-02-18 22:47:00,31.5,26.6,29.20,NW,308,4.0,5.8,82,0.00,,,0.00,VWS V14.01,2013-02-19 04:47:00,
2013-02-18 22:53:00,31.5,26.9,29.20,NW,313,4.0,8.3,83,0.00,,,0.00,VWS V14.01,2013-02-19 04:53:00,
2013-02-18 22:59:00,31.3,26.7,29.20,NW,306,8.3,12.3,83,0.00,,,0.00,VWS V14.01,2013-02-19 04:59:00,
2013-02-18 23:00:00,31.1,26.5,29.20,WNW,298,6.3,8.3,83,0.00,,,0.00,VWS V14.01,2013-02-19 05:00:00,
2013-02-18 23:01:00,31.1,26.5,29.20,NW,307,8.7,10.5,83,0.00,,,0.00,VWS V14.01,2013-02-19 05:01:00,
2013-02-18 23:02:00,31.1,26.5,29.20,West,259,8.1,8.7,83,0.00,,,0.00,VWS V14.01,2013-02-19 05:02:00,
2013-02-18 23:07:00,30.7,26.2,29.20,WNW,302,6.3,7.6,83,0.00,,,0.00,VWS V14.01,2013-02-19 05:07:00,
2013-02-18 23:11:00,30.4,25.9,29.20,WNW,292,4.0,5.4,83,0.00,,,0.00,VWS V14.01,2013-02-19 05:11:00,
2013-02-18 23:16:00,30.2,25.7,29.20,WNW,292,2.7,5.8,83,0.00,,,0.00,VWS V14.01,2013-02-19 05:16:00,
2013-02-18 23:21:00,30.0,25.5,29.20,WNW,292,4.9,8.7,83,0.00,,,0.00,VWS V14.01,2013-02-19 05:21:00,
2013-02-18 23:26:00,29.5,25.0,29.20,NW,316,8.3,12.3,83,0.00,,,0.00,VWS V14.01,2013-02-19 05:26:00,
2013-02-18 23:31:00,29.3,24.8,29.20,WNW,289,4.9,6.3,83,0.00,,,0.00,VWS V14.01,2013-02-19 05:31:00,
2013-02-18 23:37:00,29.1,24.9,29.20,WNW,297,7.6,7.6,84,0.00,,,0.00,VWS V14.01,2013-02-19 05:37:00,
2013-02-18 23:42:00,28.8,24.5,29.23,NW,313,6.3,6.3,84,0.00,,,0.00,VWS V14.01,2013-02-19 05:42:00,
2013-02-18 23:48:00,28.2,24.0,29.23,WNW,302,8.1,8.7,84,0.00,,,0.00,VWS V14.01,2013-02-19 05:48:00,
2013-02-18 23:54:00,27.9,23.7,29.23,WNW,285,5.8,8.7,84,0.00,,,0.00,VWS V14.01,2013-02-19 05:54:00,
2013-02-18 23:59:00,27.1,23.0,29.23,WNW,288,6.3,8.3,84,0.00,,,0.00,VWS V14.01,2013-02-19 05:59:00,